Location: McCall
(45.0000°N, 116.0000°W)
Time: 05:12:16
(UTC-07:00)

Amateur Radio Satellites - All Passes

Search period start: 21 December 2014 04:42
Search period end: 22 December 2014 04:42
Location: McCall, 45.0000°N, 116.0000°W

Satellite Date Start Highest point End Downlink Frequencies (MHz)
Time Altitude Azimuth
PRISM 21 Dec 04:53:33 04:56:18 17° 63° (ENE) 04:59:03 437.425
Gurwin Techsat 1B 21 Dec 04:56:17 05:00:18 22° 299° (WNW) 05:04:19 435.225
ITAMSAT 1 21 Dec 04:59:12 05:01:50 14° 303° (WNW) 05:04:27 435.822/435.867
SO-50 21 Dec 05:00:33 05:04:48 29° 41° (NE) 05:09:04 436.795
AIST 1 21 Dec 05:28:17 05:30:31 14° 276° (W) 05:32:46
AO-7 21 Dec 05:37:29 05:45:54 81° 291° (WNW) 05:54:14 29.400- 29.500
CUBESAT XI-V 21 Dec 05:44:00 05:47:55 27° 66° (ENE) 05:51:51 437.345
GONETS M04 21 Dec 05:45:50 05:54:20 55° 90° (E) 06:02:50
VERMONT LUNAR 21 Dec 05:56:47 06:00:07 40° 181° (S) 06:03:26 437.305
MOZHAYETS 4 21 Dec 05:57:09 06:00:39 21° 268° (W) 06:04:11
JAS-2 21 Dec 06:02:16 06:08:01 84° 104° (ESE) 06:13:15 435.910
STRAND 1 21 Dec 06:07:01 06:11:50 43° 68° (ENE) 06:16:38 437.568
PHONESAT 2.4 21 Dec 06:13:19 06:16:45 41° 180° (S) 06:20:11 2401.200-2431.200
Cubesat XI-IV 21 Dec 06:17:47 06:22:15 27° 94° (E) 06:26:41 437.490
PRISM 21 Dec 06:27:20 06:31:27 51° 260° (W) 06:35:35 437.425
SO-50 21 Dec 06:40:51 06:45:36 51° 241° (WSW) 06:50:20 436.795
CUTE-I 21 Dec 06:50:25 06:55:36 50° 100° (E) 07:00:45 437.470
CUBESAT XI-V 21 Dec 07:20:58 07:25:14 35° 264° (W) 07:29:31 437.345
AO-7 21 Dec 07:31:33 07:37:29 22° 312° (NW) 07:43:26 29.400- 29.500
VERMONT LUNAR 21 Dec 07:35:05 07:38:01 25° 198° (SSW) 07:40:57 437.305
GONETS M04 21 Dec 07:43:27 07:51:28 37° 291° (WNW) 07:59:32
STRAND 1 21 Dec 07:46:58 07:51:10 26° 266° (W) 07:55:24 437.568
JAS-2 21 Dec 07:48:59 07:52:14 16° 306° (NW) 07:55:22 435.910
PHONESAT 2.4 21 Dec 07:51:55 07:55:03 27° 197° (SSW) 07:58:10 2401.200-2431.200
Cubesat XI-IV 21 Dec 07:57:28 08:02:30 44° 292° (WNW) 08:07:30 437.490
BRITE-PL 21 Dec 08:16:45 08:18:31 12° 89° (E) 08:20:19 437.365/2234.400
HO-68 21 Dec 08:25:47 08:30:50 20° 90° (E) 08:35:50 435.675
CUTE-I 21 Dec 08:31:08 08:35:21 25° 298° (WNW) 08:39:34 437.470
GOMX 1 21 Dec 08:39:05 08:41:48 15° 90° (E) 08:44:36 467.674
AAUSAT CUBESAT 2 21 Dec 08:46:21 08:47:40 11° 88° (E) 08:48:59 437.432
CANX-2 21 Dec 09:00:33 09:04:17 28° 95° (E) 09:07:59 2200.000
DOVE 4 21 Dec 09:00:45 09:04:03 18° 92° (E) 09:07:27 437.250
CUSAT 1 21 Dec 09:16:42 09:19:37 20° 82° (E) 09:23:10 437.405
ANTELSAT 21 Dec 09:17:22 09:20:11 17° 61° (ENE) 09:23:02 437.575/2403.000
QB50P1 21 Dec 09:18:15 09:18:53 10° 58° (ENE) 09:19:30 145.935-145.965
COMPASS 1 21 Dec 09:20:14 09:24:00 30° 96° (E) 09:27:43 437.405
CINEMA 3 21 Dec 09:20:56 09:24:06 17° 91° (E) 09:27:19 145.822/145.860
SEEDS 21 Dec 09:26:36 09:30:41 41° 98° (E) 09:34:43 437.485
CUTE 1.7 + AOD 2 21 Dec 09:30:56 09:35:11 53° 100° (E) 09:39:23 437.475
DELFI C3 21 Dec 09:33:13 09:35:39 15° 91° (E) 09:38:04 145.870
O/OREOS (USA 219) 21 Dec 09:33:30 09:36:38 18° 51° (NE) 09:39:46 437.305
UWE-3 21 Dec 09:36:56 09:39:00 13° 89° (E) 09:41:05 435.000/436.395/437.385
POPSAT HIP 1 21 Dec 09:44:24 09:47:22 19° 64° (ENE) 09:50:22 437.405
DX 1 21 Dec 09:49:24 09:52:39 20° 93° (E) 09:55:54 434.975-435.025
TIGRISAT 21 Dec 09:51:02 09:54:57 33° 68° (ENE) 09:58:58 435.000
BRITE-PL 21 Dec 09:52:48 09:57:30 84° 284° (WNW) 10:02:35 437.365/2234.400
MaSat-1 21 Dec 09:56:22 09:58:19 24° 303° (WNW) 10:00:13 437.345
YUBILEINY 21 Dec 09:58:56 10:05:51 25° 63° (ENE) 10:12:43 435.215
HUMSAT D 21 Dec 10:03:31 10:04:37 11° 88° (E) 10:05:43 437.325/437.525
BUGSAT 1 21 Dec 10:06:47 10:10:07 25° 67° (ENE) 10:13:27 437.445
Oscar 11 21 Dec 10:09:54 10:14:07 45° 99° (E) 10:18:17 145.826/435.025
DUCHIFAT 1 21 Dec 10:11:00 10:14:48 34° 69° (ENE) 10:18:37 145.980
DANDE 21 Dec 10:11:03 10:14:37 60° 95° (E) 10:19:27 436.750
HO-68 21 Dec 10:12:08 10:19:19 81° 289° (WNW) 10:26:27 435.675
GOMX 1 21 Dec 10:15:35 10:20:18 70° 286° (WNW) 10:25:21 467.674
RS-15 21 Dec 10:18:44 10:24:17 16° 96° (E) 10:29:49 29.354- 29.394
UKube-1 21 Dec 10:19:01 10:23:07 39° 99° (E) 10:27:11 .
AAUSAT CUBESAT 2 21 Dec 10:19:35 10:23:50 71° 285° (WNW) 10:28:02 437.432
UNISAT 6 21 Dec 10:20:06 10:24:27 67° 74° (ENE) 10:28:56 437.425
QB50P2 21 Dec 10:24:50 10:28:54 49° 72° (ENE) 10:33:00 145.880/145.840
POLYITAN 1 21 Dec 10:33:52 10:38:01 62° 73° (ENE) 10:42:12 437.675
CUBEBUG 2 21 Dec 10:34:55 10:39:29 56° 100° (E) 10:44:09 437.445
NANOSAT C BR1 21 Dec 10:35:22 10:39:31 63° 73° (ENE) 10:43:42 145.865
CANX-2 21 Dec 10:36:26 10:40:12 30° 292° (WNW) 10:43:56 2200.000
DOVE 4 21 Dec 10:37:26 10:42:05 57° 287° (WNW) 10:47:01 437.250
ZACube-1 21 Dec 10:42:10 10:46:34 48° 99° (E) 10:51:01 437.345
VELOX 1 21 Dec 10:47:09 10:51:00 28° 96° (E) 10:54:50 145.980
QB50P1 21 Dec 10:49:52 10:54:04 90° 256° (WSW) 10:58:19 145.935-145.965
ANTELSAT 21 Dec 10:52:12 10:56:31 57° 260° (W) 11:00:58 437.575/2403.000
ESTCUBE 1 21 Dec 10:53:38 10:56:07 15° 90° (E) 10:58:35 437.505/2401.250
COMPASS 1 21 Dec 10:56:02 10:59:38 27° 293° (WNW) 11:03:13 437.405
CINEMA 3 21 Dec 10:56:57 11:01:36 58° 287° (WNW) 11:06:25 145.822/145.860
CUSAT 1 21 Dec 10:58:34 11:02:12 36° 292° (WNW) 11:07:00 437.405
SEEDS 21 Dec 11:03:03 11:06:14 21° 295° (WNW) 11:09:25 437.485
DELFI C3 21 Dec 11:07:13 11:11:13 50° 288° (WNW) 11:15:11 145.870
CUTE 1.7 + AOD 2 21 Dec 11:07:56 11:10:42 17° 297° (WNW) 11:13:27 437.475
50 SAT 21 Dec 11:08:09 11:12:06 41° 98° (E) 11:16:03 437.505
FUNcube-1 21 Dec 11:08:35 11:13:09 89° 104° (ESE) 11:17:44 145.935
UWE-3 21 Dec 11:11:26 11:16:01 74° 285° (WNW) 11:20:40 435.000/436.395/437.385
O/OREOS (USA 219) 21 Dec 11:11:59 11:16:27 60° 250° (WSW) 11:20:54 437.305
POPSAT HIP 1 21 Dec 11:18:58 11:22:59 43° 261° (W) 11:27:01 437.405
DX 1 21 Dec 11:24:59 11:29:04 41° 290° (WNW) 11:33:08 434.975-435.025
TIGRISAT 21 Dec 11:28:06 11:31:45 26° 266° (W) 11:35:29 435.000
AISAT 21 Dec 11:30:26 11:34:54 82° 104° (ESE) 11:39:21 437.250
CUBEBUG 1 21 Dec 11:33:37 11:37:34 34° 97° (E) 11:41:31 437.445
BRITE-PL 21 Dec 11:33:55 11:35:24 11° 300° (WNW) 11:36:54 437.365/2234.400
HUMSAT D 21 Dec 11:36:36 11:40:56 77° 285° (WNW) 11:45:17 437.325/437.525
BUGSAT 1 21 Dec 11:41:56 11:45:31 29° 264° (W) 11:49:07 437.445
Oscar 11 21 Dec 11:46:49 11:49:58 20° 296° (WNW) 11:53:06 145.826/435.025
DUCHIFAT 1 21 Dec 11:47:25 11:50:45 23° 266° (W) 11:54:05 145.980
YUBILEINY 21 Dec 11:54:57 12:03:39 78° 265° (W) 12:12:20 435.215
UKube-1 21 Dec 11:55:43 11:59:02 22° 296° (WNW) 12:02:21 .
DANDE 21 Dec 11:56:59 11:59:04 13° 305° (NW) 12:01:26 436.750
UNISAT 6 21 Dec 11:59:44 12:01:45 13° 272° (W) 12:03:48 437.425
HO-68 21 Dec 12:01:21 12:06:00 19° 309° (NW) 12:10:38 435.675
QB50P2 21 Dec 12:02:29 12:05:06 16° 269° (W) 12:07:45 145.880/145.840
POLYITAN 1 21 Dec 12:12:28 12:14:23 13° 270° (W) 12:16:18 437.675
CUBEBUG 2 21 Dec 12:12:37 12:15:48 19° 297° (WNW) 12:19:00 437.445
NANOSAT C BR1 21 Dec 12:14:01 12:15:49 12° 271° (W) 12:17:38 145.865
ZACube-1 21 Dec 12:19:20 12:22:37 20° 296° (WNW) 12:25:56 437.345
RS-15 21 Dec 12:23:35 12:34:22 69° 118° (ESE) 12:45:13 29.354- 29.394
VELOX 1 21 Dec 12:23:42 12:27:33 30° 293° (WNW) 12:31:25 145.980
ESTCUBE 1 21 Dec 12:28:57 12:33:24 61° 287° (WNW) 12:37:49 437.505/2401.250
TISAT 1 21 Dec 12:31:54 12:35:49 36° 98° (E) 12:39:43 437.305
SPROUT 21 Dec 12:38:01 12:42:05 40° 98° (E) 12:46:08 437.525
BEESAT 2 21 Dec 12:39:13 12:40:36 12° 108° (ESE) 12:42:00 435.950
Oscar 19 21 Dec 12:41:17 12:46:02 39° 68° (ENE) 12:50:50 437.125/150
50 SAT 21 Dec 12:44:04 12:47:03 19° 295° (WNW) 12:50:01 437.505
PCSat 21 Dec 12:45:07 12:46:15 11° 101° (E) 12:47:23 145.827
FUNcube-1 21 Dec 12:47:10 12:48:49 12° 301° (WNW) 12:50:28 145.935
ITAMSAT 1 21 Dec 12:59:54 13:03:59 24° 62° (ENE) 13:08:05 435.822/435.867
Gurwin Techsat 1B 21 Dec 13:01:22 13:04:36 17° 58° (ENE) 13:07:50 435.225
AO-7 21 Dec 13:01:41 13:03:45 11° 35° (NE) 13:05:50 29.400- 29.500
AISAT 21 Dec 13:09:06 13:10:53 12° 301° (WNW) 13:12:40 437.250
CUBEBUG 1 21 Dec 13:10:16 13:13:48 25° 294° (WNW) 13:17:19 437.445
BEESAT 3 21 Dec 13:33:32 13:37:27 45° 119° (ESE) 13:41:27 437.485
SWISSCUBE 21 Dec 13:43:01 13:47:22 34° 97° (E) 13:51:41 437.505
ITUPSAT 1 21 Dec 13:43:56 13:48:13 32° 96° (E) 13:52:27 437.325
AIST 2 21 Dec 13:46:14 13:49:49 27° 115° (ESE) 13:53:28 435.215
HORYU 2 21 Dec 13:52:32 13:55:14 16° 61° (ENE) 13:57:56 437.375
YUBILEINY 21 Dec 13:54:09 13:58:56 16° 286° (WNW) 14:03:43 435.215
BEESAT 21 Dec 14:07:36 14:12:19 55° 101° (E) 14:16:58 436.000
TISAT 1 21 Dec 14:08:10 14:11:27 23° 295° (WNW) 14:14:45 437.305
ISS 21 Dec 14:10:01 14:13:13 49° 144° (SE) 14:16:25 145.825
BEESAT 2 21 Dec 14:14:05 14:18:12 79° 306° (NW) 14:22:25 435.950
SPROUT 21 Dec 14:14:41 14:17:56 21° 295° (WNW) 14:21:11 437.525
Oscar 19 21 Dec 14:21:04 14:25:28 28° 265° (W) 14:29:55 437.125/150
PCSat 21 Dec 14:23:18 14:28:41 76° 119° (ESE) 14:34:08 145.827
AUBIESAT-1 21 Dec 14:29:26 14:33:07 27° 99° (E) 14:36:31 437.475
JAS-2 21 Dec 14:36:16 14:37:51 11° 50° (NE) 14:39:24 435.910
RS-15 21 Dec 14:37:10 14:47:27 44° 324° (NW) 14:57:56 29.354- 29.394
ITAMSAT 1 21 Dec 14:38:10 14:43:11 49° 260° (W) 14:48:13 435.822/435.867
Gurwin Techsat 1B 21 Dec 14:38:36 14:43:55 79° 256° (WSW) 14:49:15 435.225
AO-7 21 Dec 14:46:41 14:54:15 41° 58° (ENE) 15:01:52 29.400- 29.500
STARS 21 Dec 14:50:17 14:53:46 22° 94° (E) 14:57:15 437.465
M-CUBED/EXP-1 PRIME 21 Dec 14:55:24 14:59:45 57° 105° (ESE) 15:03:41 437.505
KKS-1 21 Dec 14:55:39 14:59:49 37° 98° (E) 15:03:57 437.445
BEESAT 3 21 Dec 15:12:27 15:15:50 24° 318° (NW) 15:19:17 437.485
SWISSCUBE 21 Dec 15:21:03 15:25:08 29° 294° (WNW) 15:29:11 437.505
ITUPSAT 1 21 Dec 15:21:52 15:26:03 31° 294° (WNW) 15:30:12 437.325
AIST 2 21 Dec 15:24:20 15:28:19 37° 313° (NW) 15:32:21 435.215
HORYU 2 21 Dec 15:26:59 15:31:24 63° 258° (WSW) 15:35:53 437.375
BEESAT 21 Dec 15:46:24 15:49:45 19° 298° (WNW) 15:53:05 436.000
ISS 21 Dec 15:46:48 15:49:53 36° 342° (NNW) 15:52:59 145.825
GONETS M04 21 Dec 15:53:50 16:01:19 30° 65° (ENE) 16:08:42
BEESAT 2 21 Dec 15:54:50 15:57:10 14° 326° (NW) 15:59:31 435.950
AUBIESAT-1 21 Dec 16:04:13 16:08:05 31° 299° (WNW) 16:11:38 437.475
PCSat 21 Dec 16:08:28 16:12:42 23° 320° (NW) 16:16:57 145.827
JAS-2 21 Dec 16:14:21 16:21:33 50° 68° (ENE) 16:28:06 435.910
AIST 1 21 Dec 16:21:07 16:24:53 29° 90° (E) 16:28:39
Gurwin Techsat 1B 21 Dec 16:23:57 16:24:43 10° 274° (W) 16:25:29 435.225
STARS 21 Dec 16:26:15 16:30:22 39° 291° (WNW) 16:34:30 437.465
M-CUBED/EXP-1 PRIME 21 Dec 16:31:23 16:34:15 17° 305° (NW) 16:36:58 437.505
KKS-1 21 Dec 16:32:40 16:36:17 25° 295° (WNW) 16:39:54 437.445
CUTE-I 21 Dec 16:37:13 16:40:18 16° 57° (ENE) 16:43:24 437.470
AO-7 21 Dec 16:38:46 16:46:50 53° 258° (WSW) 16:55:00 29.400- 29.500
RS-15 21 Dec 16:54:40 17:03:35 27° 358° (N) 17:12:44 29.354- 29.394
ISS 21 Dec 17:24:16 17:27:04 25° 3° (N) 17:29:51 145.825
Cubesat XI-IV 21 Dec 17:41:36 17:46:46 53° 70° (ENE) 17:51:56 437.490
MOZHAYETS 4 21 Dec 17:49:01 17:53:41 83° 103° (ESE) 17:58:17
GONETS M04 21 Dec 17:50:11 17:58:51 67° 267° (W) 18:07:25
MaSat-1 21 Dec 17:51:15 17:53:16 24° 57° (ENE) 17:55:22 437.345
AIST 1 21 Dec 17:58:48 18:02:31 27° 287° (WNW) 18:06:14
JAS-2 21 Dec 17:59:50 18:06:41 36° 264° (W) 18:13:01 435.910
PRISM 21 Dec 18:09:19 18:12:19 19° 93° (E) 18:15:18 437.425
CUTE-I 21 Dec 18:14:22 18:19:41 83° 256° (WSW) 18:25:02 437.470
STRAND 1 21 Dec 18:17:42 18:19:32 12° 88° (E) 18:21:21 437.568
HO-68 21 Dec 18:57:23 19:02:28 22° 53° (NE) 19:07:34 435.675
ISS 21 Dec 19:00:57 19:04:10 48° 22° (NNE) 19:07:21 145.825
DANDE 21 Dec 19:06:11 19:11:07 18° 60° (ENE) 19:16:26 436.750
RS-15 21 Dec 19:09:43 19:20:02 40° 32° (NNE) 19:30:41 29.354- 29.394
CUBESAT XI-V 21 Dec 19:15:24 19:19:54 50° 99° (E) 19:24:21 437.345
Cubesat XI-IV 21 Dec 19:23:06 19:27:10 22° 268° (W) 19:31:15 437.490
MaSat-1 21 Dec 19:26:09 19:26:16 10° 252° (WSW) 19:26:24 437.345
MOZHAYETS 4 21 Dec 19:28:11 19:30:14 13° 301° (WNW) 19:32:17
BRITE-PL 21 Dec 19:30:22 19:32:38 15° 62° (ENE) 19:34:54 437.365/2234.400
AAUSAT CUBESAT 2 21 Dec 19:40:21 19:41:43 11° 60° (ENE) 19:43:06 437.432
PRISM 21 Dec 19:44:08 19:48:01 39° 290° (WNW) 19:51:52 437.425
GOMX 1 21 Dec 19:50:17 19:52:55 17° 63° (ENE) 19:55:36 467.674
GONETS M04 21 Dec 19:50:18 19:53:51 13° 289° (WNW) 19:57:23
CUSAT 1 21 Dec 19:50:32 19:57:33 37° 69° (ENE) 20:05:15 437.405
STRAND 1 21 Dec 19:54:17 19:59:25 88° 285° (WNW) 20:04:31 437.568
CANX-2 21 Dec 19:55:50 19:59:25 26° 67° (ENE) 20:03:01 2200.000
CUTE-I 21 Dec 19:59:06 20:00:33 11° 273° (W) 20:02:01 437.470
DOVE 4 21 Dec 20:09:28 20:12:27 20° 64° (ENE) 20:15:29 437.250
COMPASS 1 21 Dec 20:14:01 20:17:36 27° 67° (ENE) 20:21:13 437.405
BEESAT 3 21 Dec 20:14:58 20:16:24 11° 30° (NNE) 20:17:50 437.485
SEEDS 21 Dec 20:20:55 20:24:50 37° 70° (ENE) 20:28:48 437.485
DELFI C3 21 Dec 20:24:31 20:26:40 14° 62° (ENE) 20:28:50 145.870
CINEMA 3 21 Dec 20:25:42 20:28:32 18° 63° (ENE) 20:31:25 145.822/145.860
CUTE 1.7 + AOD 2 21 Dec 20:25:50 20:29:56 49° 72° (ENE) 20:34:06 437.475
FUNcube-1 21 Dec 20:34:47 20:35:13 10° 58° (ENE) 20:35:39 145.935
UWE-3 21 Dec 20:37:08 20:39:06 13° 60° (ENE) 20:41:05 435.000/436.395/437.385
ISS 21 Dec 20:37:43 20:40:38 29° 220° (SW) 20:43:31 145.825
HO-68 21 Dec 20:42:06 20:49:18 89° 253° (WSW) 20:56:32 435.675
DX 1 21 Dec 20:47:09 20:50:37 24° 65° (ENE) 20:54:07 434.975-435.025
DANDE 21 Dec 20:48:00 20:55:40 72° 78° (ENE) 21:04:21 436.750
CUBESAT XI-V 21 Dec 20:53:42 20:56:59 20° 297° (WNW) 21:00:15 437.345
BEESAT 2 21 Dec 20:54:59 20:58:02 19° 38° (NE) 21:01:03 435.950
AISAT 21 Dec 20:57:25 20:58:56 12° 58° (ENE) 21:00:28 437.250
SO-50 21 Dec 20:57:34 21:01:37 33° 116° (ESE) 21:05:49 436.795
HUMSAT D 21 Dec 20:58:41 20:59:43 11° 59° (ENE) 21:00:45 437.325/437.525
Oscar 11 21 Dec 21:06:35 21:10:43 45° 71° (ENE) 21:14:53 145.826/435.025
BRITE-PL 21 Dec 21:06:40 21:10:45 55° 260° (W) 21:14:51 437.365/2234.400
AAUSAT CUBESAT 2 21 Dec 21:12:32 21:16:44 81° 258° (WSW) 21:21:00 437.432
UKube-1 21 Dec 21:16:00 21:20:07 44° 70° (ENE) 21:24:15 .
RS-15 21 Dec 21:22:23 21:33:39 82° 238° (WSW) 21:45:26 29.354- 29.394
GOMX 1 21 Dec 21:26:43 21:30:42 47° 261° (W) 21:34:47 467.674
PCSat 21 Dec 21:26:44 21:30:39 20° 38° (NE) 21:34:33 145.827
CANX-2 21 Dec 21:31:27 21:35:15 31° 264° (W) 21:39:06 2200.000
CUSAT 1 21 Dec 21:33:20 21:40:54 58° 266° (W) 21:49:11 437.405
STRAND 1 21 Dec 21:35:25 21:37:51 14° 303° (WNW) 21:40:17 437.568
CUBEBUG 2 21 Dec 21:35:34 21:39:40 57° 73° (ENE) 21:43:55 437.445
ZACube-1 21 Dec 21:40:29 21:44:31 47° 71° (ENE) 21:48:39 437.345
DOVE 4 21 Dec 21:46:04 21:49:58 40° 262° (W) 21:53:58 437.250
VELOX 1 21 Dec 21:47:02 21:50:59 33° 68° (ENE) 21:54:58 145.980
COMPASS 1 21 Dec 21:49:34 21:53:15 29° 265° (W) 21:56:59 437.405
BEESAT 3 21 Dec 21:51:23 21:55:31 54° 51° (NE) 21:59:35 437.485
ESTCUBE 1 21 Dec 21:55:24 21:58:32 19° 63° (ENE) 22:01:40 437.505/2401.250
DELFI C3 21 Dec 21:57:23 22:01:27 61° 259° (W) 22:05:34 145.870
SEEDS 21 Dec 21:57:32 22:00:47 21° 267° (W) 22:04:05 437.485
50 SAT 21 Dec 21:58:31 22:02:09 34° 69° (ENE) 22:05:51 437.505
CINEMA 3 21 Dec 22:01:23 22:05:24 46° 261° (W) 22:09:33 145.822/145.860
CUTE 1.7 + AOD 2 21 Dec 22:03:24 22:06:09 17° 269° (W) 22:08:55 437.475
AIST 2 21 Dec 22:05:53 22:09:54 36° 46° (NE) 22:13:51 435.215
FUNcube-1 21 Dec 22:06:38 22:10:49 89° 76° (ENE) 22:15:09 145.935
UWE-3 21 Dec 22:10:53 22:15:03 70° 258° (WSW) 22:19:22 435.000/436.395/437.385
UNISAT 6 21 Dec 22:11:57 22:14:16 13° 89° (E) 22:16:34 437.425
DX 1 21 Dec 22:22:42 22:26:42 35° 262° (W) 22:30:42 434.975-435.025
AISAT 21 Dec 22:30:29 22:34:54 86° 256° (WSW) 22:39:21 437.250
HUMSAT D 21 Dec 22:30:42 22:34:50 84° 257° (WSW) 22:39:04 437.325/437.525
CUBEBUG 1 21 Dec 22:31:54 22:35:54 37° 69° (ENE) 22:39:55 437.445
DANDE 21 Dec 22:32:18 22:38:43 29° 273° (W) 22:45:43 436.750
BEESAT 2 21 Dec 22:32:32 22:36:43 68° 238° (WSW) 22:40:50 435.950
HO-68 21 Dec 22:33:27 22:37:56 17° 272° (W) 22:42:27 435.675
QB50P1 21 Dec 22:35:07 22:37:09 13° 90° (E) 22:39:10 145.935-145.965
SO-50 21 Dec 22:37:54 22:42:08 36° 315° (NW) 22:46:30 436.795
ANTELSAT 21 Dec 22:42:41 22:46:42 27° 94° (E) 22:50:43 437.575/2403.000
Oscar 11 21 Dec 22:44:05 22:47:07 18° 268° (W) 22:50:10 145.826/435.025
UKube-1 21 Dec 22:53:27 22:56:30 19° 267° (W) 22:59:33 .
POPSAT HIP 1 21 Dec 23:02:45 23:06:20 26° 95° (E) 23:09:54 437.405
YUBILEINY 21 Dec 23:03:45 23:10:29 26° 80° (E) 23:17:13 435.215
PCSat 21 Dec 23:09:22 23:14:50 89° 59° (ENE) 23:20:15 145.827
CUBEBUG 2 21 Dec 23:14:38 23:16:49 14° 271° (W) 23:19:01 437.445
TIGRISAT 21 Dec 23:16:54 23:21:33 57° 100° (E) 23:26:11 435.000
ZACube-1 21 Dec 23:18:27 23:21:11 17° 269° (W) 23:23:57 437.345
CUSAT 1 21 Dec 23:19:58 23:22:41 12° 283° (WNW) 23:25:29 437.405
BUGSAT 1 21 Dec 23:22:09 23:25:49 31° 97° (E) 23:29:28 437.445
VELOX 1 21 Dec 23:23:56 23:27:37 25° 265° (W) 23:31:18 145.980
TISAT 1 21 Dec 23:26:31 23:30:21 36° 69° (ENE) 23:34:12 437.305
DUCHIFAT 1 21 Dec 23:29:38 23:33:47 49° 100° (E) 23:37:55 145.980
BEESAT 3 21 Dec 23:30:33 23:33:17 17° 249° (WSW) 23:35:59 437.485
ESTCUBE 1 21 Dec 23:30:36 23:35:01 52° 260° (W) 23:39:28 437.505/2401.250
SPROUT 21 Dec 23:34:17 23:38:16 40° 70° (ENE) 23:42:17 437.525
50 SAT 21 Dec 23:34:24 23:37:28 21° 267° (W) 23:40:35 437.505
RS-15 21 Dec 23:36:30 23:44:22 22° 260° (W) 23:52:28 29.354- 29.394
BEESAT 21 Dec 23:42:22 23:43:46 11° 56° (NE) 23:45:10 436.000
QB50P2 21 Dec 23:44:10 23:48:28 73° 102° (ESE) 23:52:44 145.880/145.840
AIST 2 21 Dec 23:44:43 23:48:25 28° 245° (WSW) 23:52:04 435.215
UNISAT 6 21 Dec 23:46:50 23:51:33 73° 286° (WNW) 23:56:15 437.425
O/OREOS (USA 219) 21 Dec 23:50:06 23:51:40 12° 97° (E) 23:53:13 437.305
POLYITAN 1 21 Dec 23:53:31 23:57:50 89° 284° (WNW) 00:02:09 437.675
NANOSAT C BR1 21 Dec 23:54:29 23:58:46 88° 281° (W) 00:03:02 145.865
CUBEBUG 1 22 Dec 00:08:58 00:12:23 22° 266° (W) 00:15:49 437.445
QB50P1 22 Dec 00:09:13 00:13:26 62° 287° (WNW) 00:17:39 145.935-145.965
M-CUBED/EXP-1 PRIME 22 Dec 00:13:05 00:16:09 17° 55° (NE) 00:19:13 437.505
ANTELSAT 22 Dec 00:19:14 00:23:32 36° 292° (WNW) 00:27:51 437.575/2403.000
SO-50 22 Dec 00:23:08 00:24:06 11° 338° (NNW) 00:25:05 436.795
POPSAT HIP 1 22 Dec 00:38:28 00:42:14 31° 292° (WNW) 00:46:01 437.405
SWISSCUBE 22 Dec 00:51:31 00:56:08 50° 71° (ENE) 01:00:46 437.505
ITUPSAT 1 22 Dec 00:52:38 00:57:13 47° 70° (ENE) 01:01:50 437.325
Oscar 19 22 Dec 00:53:03 00:54:45 11° 87° (E) 00:56:27 437.125/150
TIGRISAT 22 Dec 00:54:39 00:57:52 19° 298° (WNW) 01:01:06 435.000
PCSat 22 Dec 00:54:50 00:57:27 14° 257° (WSW) 01:00:03 145.827
YUBILEINY 22 Dec 00:57:42 01:06:26 73° 281° (W) 01:15:10 435.215
BUGSAT 1 22 Dec 00:57:56 01:01:10 23° 294° (WNW) 01:04:25 437.445
TISAT 1 22 Dec 01:03:02 01:06:17 22° 266° (W) 01:09:33 437.305
DUCHIFAT 1 22 Dec 01:06:27 01:09:17 18° 297° (WNW) 01:12:08 145.980
SPROUT 22 Dec 01:11:21 01:14:31 20° 267° (W) 01:17:42 437.525
BEESAT 22 Dec 01:16:01 01:20:48 80° 74° (ENE) 01:25:37 436.000
AUBIESAT-1 22 Dec 01:19:04 01:23:48 55° 66° (ENE) 01:28:35 437.475
QB50P2 22 Dec 01:21:54 01:23:49 13° 300° (WNW) 01:25:44 145.880/145.840
O/OREOS (USA 219) 22 Dec 01:25:57 01:30:24 74° 295° (WNW) 01:34:53 437.305
POLYITAN 1 22 Dec 01:32:14 01:33:05 11° 302° (WNW) 01:33:57 437.675
NANOSAT C BR1 22 Dec 01:33:20 01:33:56 10° 302° (WNW) 01:34:33 145.865
M-CUBED/EXP-1 PRIME 22 Dec 01:45:40 01:50:32 79° 252° (WSW) 01:55:29 437.505
STARS 22 Dec 01:49:34 01:53:10 26° 66° (ENE) 01:56:48 437.465
KKS-1 22 Dec 01:55:53 02:00:03 42° 70° (ENE) 02:04:15 437.445
Oscar 19 22 Dec 02:29:35 02:34:50 87° 105° (ESE) 02:40:02 437.125/150
SWISSCUBE 22 Dec 02:30:47 02:34:16 20° 268° (W) 02:37:46 437.505
ITUPSAT 1 22 Dec 02:31:42 02:35:21 21° 267° (W) 02:39:00 437.325
ITAMSAT 1 22 Dec 02:48:50 02:53:52 50° 100° (E) 02:58:53 435.822/435.867
Gurwin Techsat 1B 22 Dec 02:53:04 02:57:56 36° 97° (E) 03:02:46 435.225
AUBIESAT-1 22 Dec 02:55:25 02:59:00 20° 263° (W) 03:02:37 437.475
BEESAT 22 Dec 02:57:17 02:59:14 12° 272° (W) 03:01:11 436.000
YUBILEINY 22 Dec 02:59:44 03:05:00 17° 304° (NW) 03:10:17 435.215
O/OREOS (USA 219) 22 Dec 03:09:22 03:10:39 11° 315° (NW) 03:11:56 437.305
HORYU 2 22 Dec 03:17:14 03:20:46 22° 94° (E) 03:24:17 437.375
MOZHAYETS 4 22 Dec 03:18:51 03:20:52 13° 59° (ENE) 03:22:52
STARS 22 Dec 03:25:33 03:29:31 33° 263° (W) 03:33:31 437.465
M-CUBED/EXP-1 PRIME 22 Dec 03:25:40 03:26:14 10° 269° (W) 03:26:47 437.505
KKS-1 22 Dec 03:33:37 03:36:53 20° 267° (W) 03:40:11 437.445
VERMONT LUNAR 22 Dec 03:39:44 03:42:43 25° 162° (SSE) 03:45:41 437.305
SO-50 22 Dec 03:47:16 03:49:53 14° 29° (NNE) 03:52:31 436.795
PHONESAT 2.4 22 Dec 04:01:16 04:04:18 25° 162° (SSE) 04:07:20 2401.200-2431.200
AIST 1 22 Dec 04:03:15 04:07:33 89° 263° (W) 04:11:49
Oscar 19 22 Dec 04:10:40 04:13:27 15° 303° (WNW) 04:16:14 437.125/150
ITAMSAT 1 22 Dec 04:29:00 04:33:03 24° 298° (WNW) 04:37:05 435.822/435.867
